Satellite: DTUSAT-2 Catalog number: 40030 Epoch time: 14352.68607237 Element set: 523 Inclination: 097.9662 deg RA of node: 247.4981 deg Eccentricity: 0.0013766 Arg of perigee: 051.1277 deg Mean anomaly: 309.1204 deg Mean motion: 14.85763848 rev/day Decay rate: 4.113e-05 rev/day^2 Epoch rev: 2697 Checksum: 308
Satellite: ANTELSAT Catalog number: 40034 Epoch time: 14352.81616792 Element set: 538 Inclination: 097.9627 deg RA of node: 243.6896 deg Eccentricity: 0.0060758 Arg of perigee: 338.2244 deg Mean anomaly: 021.6423 deg Mean motion: 14.71928579 rev/day Decay rate: 3.926e-05 rev/day^2 Epoch rev: 2675 Checksum: 331
/EX SB KEPS @ AMSAT $ORB14352.W Orbital Elements 14352.WEATHER
HR AMSAT ORBITAL ELEMENTS FOR WEATHER SATELLITES FROM WA5QGD FORT WORTH,TX December 18, 2014 BID: ORB14352.W TO ALL RADIO AMATEURS BT
Satellite: MET-2/21 Catalog number: 22782 Epoch time: 14352.23967527 Element set: 251 Inclination: 082.5486 deg RA of node: 027.2640 deg Eccentricity: 0.0023691 Arg of perigee: 108.7400 deg Mean anomaly: 320.6473 deg Mean motion: 13.83754326 rev/day Decay rate: 4.3e-07 rev/day^2 Epoch rev: 7557 Checksum: 294
Satellite: OKEAN-4 Catalog number: 23317 Epoch time: 14352.29403392 Element set: 736 Inclination: 082.5398 deg RA of node: 255.2564 deg Eccentricity: 0.0019499 Arg of perigee: 205.0396 deg Mean anomaly: 304.9321 deg Mean motion: 14.86114820 rev/day Decay rate: 1.374e-05 rev/day^2 Epoch rev: 9044 Checksum: 302
Satellite: NOAA-14 Catalog number: 23455 Epoch time: 14352.55821291 Element set: 22 Inclination: 098.7670 deg RA of node: 072.6238 deg Eccentricity: 0.0008874 Arg of perigee: 229.6923 deg Mean anomaly: 244.3808 deg Mean motion: 14.14010293 rev/day Decay rate: 5.3e-07 rev/day^2 Epoch rev: 3000 Checksum: 277
Satellite: NOAA-15 Catalog number: 25338 Epoch time: 14352.52785094 Element set: 458 Inclination: 098.7641 deg RA of node: 346.1448 deg Eccentricity: 0.0010023 Arg of perigee: 338.0375 deg Mean anomaly: 181.1282 deg Mean motion: 14.25531160 rev/day Decay rate: 2.92e-06 rev/day^2 Epoch rev: 86310 Checksum: 291
Satellite: RESURS Catalog number: 25394 Epoch time: 14351.90480551 Element set: 833 Inclination: 098.4409 deg RA of node: 308.7818 deg Eccentricity: 0.0002520 Arg of perigee: 091.8628 deg Mean anomaly: 280.9061 deg Mean motion: 14.24426827 rev/day Decay rate: 9.5e-07 rev/day^2 Epoch rev: 85447 Checksum: 313
Satellite: FENGYUN1 Catalog number: 25730 Epoch time: 14352.49487517 Element set: 321 Inclination: 098.9285 deg RA of node: 312.6521 deg Eccentricity: 0.0021226 Arg of perigee: 312.2178 deg Mean anomaly: 186.0536 deg Mean motion: 14.12689467 rev/day Decay rate: 4.723e-05 rev/day^2 Epoch rev: 80353 Checksum: 302
Satellite: OKEAN-0 Catalog number: 25860 Epoch time: 14351.88650943 Element set: 443 Inclination: 098.0699 deg RA of node: 314.9579 deg Eccentricity: 0.0001583 Arg of perigee: 120.6190 deg Mean anomaly: 265.9863 deg Mean motion: 14.75662702 rev/day Decay rate: 1.445e-05 rev/day^2 Epoch rev: 82924 Checksum: 331
Satellite: NOAA-16 Catalog number: 26536 Epoch time: 14352.46715156 Element set: 958 Inclination: 098.9675 deg RA of node: 053.4115 deg Eccentricity: 0.0010659 Arg of perigee: 029.1466 deg Mean anomaly: 331.0299 deg Mean motion: 14.13064140 rev/day Decay rate: 3.2e-07 rev/day^2 Epoch rev: 73413 Checksum: 298
Satellite: NOAA-17 Catalog number: 27453 Epoch time: 14352.53720781 Element set: 849 Inclination: 098.3252 deg RA of node: 342.6433 deg Eccentricity: 0.0011417 Arg of perigee: 359.0796 deg Mean anomaly: 001.0361 deg Mean motion: 14.24832661 rev/day Decay rate: 1.78e-06 rev/day^2 Epoch rev: 64893 Checksum: 309
Satellite: NOAA-18 Catalog number: 28654 Epoch time: 14352.55178537 Element set: 371 Inclination: 099.1690 deg RA of node: 335.9489 deg Eccentricity: 0.0015256 Arg of perigee: 106.5916 deg Mean anomaly: 000.8521 deg Mean motion: 14.12119819 rev/day Decay rate: 1.47e-06 rev/day^2 Epoch rev: 49358 Checksum: 327
Satellite: NOAA-19 Catalog number: 33591 Epoch time: 14352.55213881 Element set: 502 Inclination: 098.9686 deg RA of node: 297.2304 deg Eccentricity: 0.0013351 Arg of perigee: 322.7478 deg Mean anomaly: 157.8794 deg Mean motion: 14.11833077 rev/day Decay rate: 4.54e-06 rev/day^2 Epoch rev: 30200 Checksum: 309
/EX SB KEPS @ AMSAT $ORB14352.M Orbital Elements 14352.MISC
HR AMSAT ORBITAL ELEMENTS FOR MANNED AND MISCELLANEOUS SATELLITES FROM WA5QGD FORT WORTH,TX December 18, 2014 BID: ORB14352.M TO ALL RADIO AMATEURS BT
Satellite: HUBBLE Catalog number: 20580 Epoch time: 14352.49090278 Element set: 181 Inclination: 028.4707 deg RA of node: 264.8553 deg Eccentricity: 0.0003138 Arg of perigee: 095.7232 deg Mean anomaly: 241.2353 deg Mean motion: 15.06445853 rev/day Decay rate: 4.930e-05 rev/day^2 Epoch rev: 15252 Checksum: 283
Satellite: ISS Catalog number: 25544 Epoch time: 14352.86399956 Element set: 588 Inclination: 051.6484 deg RA of node: 263.7528 deg Eccentricity: 0.0007637 Arg of perigee: 144.6912 deg Mean anomaly: 303.7798 deg Mean motion: 15.52444472 rev/day Decay rate: 2.9740e-04 rev/day^2 Epoch rev: 91998 Checksum: 362
Satellite: CO-58 Catalog number: 28895 Epoch time: 14352.51337541 Element set: 947 Inclination: 097.8211 deg RA of node: 184.7421 deg Eccentricity: 0.0018036 Arg of perigee: 145.2149 deg Mean anomaly: 215.0237 deg Mean motion: 14.62330950 rev/day Decay rate: 2.283e-05 rev/day^2 Epoch rev: 48718 Checksum: 313
Satellite: FALCON Catalog number: 30776 Epoch time: 14351.52610558 Element set: 29 Inclination: 035.4294 deg RA of node: 056.2578 deg Eccentricity: 0.0002885 Arg of perigee: 138.5732 deg Mean anomaly: 348.6461 deg Mean motion: 15.19896871 rev/day Decay rate: 1.6857e-04 rev/day^2 Epoch rev: 42860 Checksum: 333
Satellite: MAST Catalog number: 31126 Epoch time: 14351.50518828 Element set: 229 Inclination: 097.9376 deg RA of node: 323.0942 deg Eccentricity: 0.0092587 Arg of perigee: 141.9935 deg Mean anomaly: 006.2258 deg Mean motion: 14.55663048 rev/day Decay rate: 1.131e-05 rev/day^2 Epoch rev: 40705 Checksum: 299
Satellite: CAPE1 Catalog number: 31130 Epoch time: 14351.45747487 Element set: 234 Inclination: 097.9592 deg RA of node: 319.9498 deg Eccentricity: 0.0098778 Arg of perigee: 160.9550 deg Mean anomaly: 199.5383 deg Mean motion: 14.54969778 rev/day Decay rate: 1.440e-05 rev/day^2 Epoch rev: 40645 Checksum: 361
Satellite: COMPASS Catalog number: 32787 Epoch time: 14352.56737015 Element set: 129 Inclination: 097.6788 deg RA of node: 040.7034 deg Eccentricity: 0.0012096 Arg of perigee: 294.1716 deg Mean anomaly: 065.8237 deg Mean motion: 14.89287303 rev/day Decay rate: 6.242e-05 rev/day^2 Epoch rev: 35961 Checksum: 321
Satellite: AAUSAT2 Catalog number: 32788 Epoch time: 14352.14102505 Element set: 115 Inclination: 097.6798 deg RA of node: 041.5163 deg Eccentricity: 0.0011536 Arg of perigee: 292.8858 deg Mean anomaly: 067.1142 deg Mean motion: 14.90146270 rev/day Decay rate: 5.664e-05 rev/day^2 Epoch rev: 35962 Checksum: 303
Satellite: DO-64 Catalog number: 32789 Epoch time: 14352.13330670 Element set: 160 Inclination: 097.7009 deg RA of node: 049.9484 deg Eccentricity: 0.0009866 Arg of perigee: 271.7705 deg Mean anomaly: 147.6019 deg Mean motion: 14.96426509 rev/day Decay rate: 1.1454e-04 rev/day^2 Epoch rev: 35997 Checksum: 342
Satellite: CO-66 Catalog number: 32791 Epoch time: 14352.56864353 Element set: 112 Inclination: 097.6780 deg RA of node: 039.0543 deg Eccentricity: 0.0012901 Arg of perigee: 299.2550 deg Mean anomaly: 060.7377 deg Mean motion: 14.87657792 rev/day Decay rate: 4.727e-05 rev/day^2 Epoch rev: 35945 Checksum: 340
Satellite: RS-30 Catalog number: 32953 Epoch time: 14352.70567711 Element set: 567 Inclination: 082.5035 deg RA of node: 086.4838 deg Eccentricity: 0.0019522 Arg of perigee: 115.3105 deg Mean anomaly: 245.0005 deg Mean motion: 12.43053835 rev/day Decay rate: 1.0e-07 rev/day^2 Epoch rev: 29818 Checksum: 277
Satellite: METEOR-M Catalog number: 35865 Epoch time: 14352.72652164 Element set: 175 Inclination: 098.5255 deg RA of node: 034.3112 deg Eccentricity: 0.0001928 Arg of perigee: 290.7608 deg Mean anomaly: 069.3362 deg Mean motion: 14.21967609 rev/day Decay rate: 1.87e-06 rev/day^2 Epoch rev: 27256 Checksum: 310
Satellite: RS-38 Catalog number: 35869 Epoch time: 14352.86507090 Element set: 82 Inclination: 098.5196 deg RA of node: 034.1632 deg Eccentricity: 0.0003724 Arg of perigee: 284.6438 deg Mean anomaly: 075.4323 deg Mean motion: 14.22254979 rev/day Decay rate: 1.16e-06 rev/day^2 Epoch rev: 27262 Checksum: 316
Satellite: JUGNU Catalog number: 37839 Epoch time: 14351.87165654 Element set: 755 Inclination: 019.9602 deg RA of node: 221.6218 deg Eccentricity: 0.0018974 Arg of perigee: 208.1684 deg Mean anomaly: 244.1607 deg Mean motion: 14.12392111 rev/day Decay rate: 5.04e-06 rev/day^2 Epoch rev: 16455 Checksum: 298
Satellite: SRMSAT Catalog number: 37841 Epoch time: 14352.13070282 Element set: 759 Inclination: 019.9707 deg RA of node: 243.0779 deg Eccentricity: 0.0011912 Arg of perigee: 143.5222 deg Mean anomaly: 339.3725 deg Mean motion: 14.10418686 rev/day Decay rate: 4.20e-06 rev/day^2 Epoch rev: 16435 Checksum: 285
Satellite: RAX-2 Catalog number: 37853 Epoch time: 14351.80908970 Element set: 990 Inclination: 101.7026 deg RA of node: 109.3388 deg Eccentricity: 0.0207453 Arg of perigee: 244.6398 deg Mean anomaly: 277.4081 deg Mean motion: 14.92452022 rev/day Decay rate: 1.7155e-04 rev/day^2 Epoch rev: 17001 Checksum: 303
Satellite: AUBIESAT Catalog number: 37854 Epoch time: 14352.33550200 Element set: 989 Inclination: 101.7075 deg RA of node: 112.6889 deg Eccentricity: 0.0204423 Arg of perigee: 239.2046 deg Mean anomaly: 186.1111 deg Mean motion: 14.94140002 rev/day Decay rate: 1.5914e-04 rev/day^2 Epoch rev: 17017 Checksum: 270
